Skip Page Navigation
NASA JPL Caltech
NASA Logo - Jet Propulsion Laboratory + View the NASA Portal
+ Near-Earth Object (NEO) Program
Search JPL
JPL Home Earth Solar System Stars & Galaxies Technology
JPL Solar System Dynamics
BODIES ORBITS EPHEMERIDES TOOLS PHYSICAL DATA DISCOVERY FAQ SITE MAP
JPL Small-Body Database Browser
Search: [ help ]  
9944 (1990 DA3)
Classification: Main-belt Asteroid          SPK-ID: 2009944
Ephemeris | Orbit Diagram | Orbital Elements | Physical Parameters | Discovery Circumstances | Close-Approach Data ]

[ show orbit diagram ]
Orbital Elements at Epoch 2457000.5 (2014-Dec-09.0) TDB
Reference: JPL 13 (heliocentric ecliptic J2000)
 Element Value Uncertainty (1-sigma)   Units 
e .04921230891139978 5.6206e-08  
a 2.833550665014375 2.2453e-08 AU
q 2.694105094371586 1.5625e-07 AU
i 3.164303187713252 5.2123e-06 deg
node 116.9658876759684 0.00011292 deg
peri 313.4539871824273 0.00013283 deg
M 143.8906691011631 6.6992e-05 deg
tp 2456304.154085666794
(2013-Jan-11.65408567)
0.00032521 JED
period 1742.187528391498
4.77
2.0707e-05
5.669e-08
d
yr
n .2066367679329995 2.4561e-09 deg/d
Q 2.972996235657165 2.3558e-08 AU
  Orbit Determination Parameters
   # obs. used (total)      1149  
   data-arc span      9358 days (25.62 yr)  
   first obs. used      1988-11-06  
   last obs. used      2014-06-21  
   planetary ephem.      DE431  
   SB-pert. ephem.      SB431-BIG16  
   condition code      0  
   fit RMS      .52604  
   data source      ORB  
   producer      Otto Matic  
   solution date      2014-Aug-13 14:15:44  

Additional Information
 Earth MOID = 1.70935 AU 
 T_jup = 3.308 
[ show covariance matrix ]

Ephemeris | Orbit Diagram | Orbital Elements | Physical Parameters | Discovery Circumstances | Close-Approach Data ]

Physical Parameter Table
Parameter Symbol Value Units Sigma Reference Notes
absolute magnitude H 13.3 mag n/a MPO302127  

9944 (1990 DA3)          Discovered 1990-Feb-24 by Debehogne, H. at La Silla (809)
Reference: 19990202/Numbers.arcLast Updated: 2004-04-19

[ show close-approach data ]
Alternate Designations
 1990 DA3 = 1993 VD8 = 1995 FT6 
Ephemeris | Orbit Diagram | Orbital Elements | Physical Parameters | Discovery Circumstances | Close-Approach Data ]
ABOUT SSD CREDITS/AWARDS PRIVACY/COPYRIGHT GLOSSARY LINKS
FirstGov 2014-Nov-27 02:47 UT
(server date/time)  
NASA Home Page
Site Manager:   Donald K. Yeomans
Webmaster  Alan B. Chamberlin